Location: Cluny
(50.9333°N, 112.8167°W)
Time: 21:08:47
(UTC-06:00)

Hamsat - Visible Passes

Search period start: 28 March 2015 00:00
Search period end: 07 April 2015 00:00
Orbit: 591 x 623 km, 97.6° (Epoch: 27 March)

Date Brightness Start Highest point End Pass type
(mag) Time Alt. Az. Time Alt. Az. Time Alt. Az.
28 Mar ? 06:09:47 10° NE 06:13:07 22° E 06:16:31 10° SE visible
29 Mar ? 06:22:48 10° NE 06:26:34 28° E 06:30:21 10° SSE visible
30 Mar ? 06:35:55 10° NNE 06:39:59 37° E 06:44:02 10° SSE visible
02 Apr ? 05:41:50 10° ENE 05:43:20 12° E 05:45:03 10° ESE visible
03 Apr ? 05:54:14 10° NE 05:56:49 16° E 05:59:33 10° SE visible
04 Apr ? 06:07:01 10° NE 06:10:17 21° E 06:13:35 10° SE visible
05 Apr ? 06:19:58 10° NE 06:23:41 27° E 06:27:24 10° SSE visible
